Regional Weather Roundup
Issued by NWS New Orleans/Baton Rouge, LA

Home | Current Version | Previous Version | Graphics & Text | Print | Product List | Glossary On
Versions: 1 2 3 4 5 6 7 8 9 10 11 12 13 14 15 16 17 18 19 20 21 22 23 24 25 26 27 28 29 30 31 32 33 34 35 36 37 38 39 40 41 42 43 44 45 46 47 48 49 50
731
ASUS44 KLIX 180611
RWRLIX
NEW ORLEANS REGIONAL WEATHER ROUNDUP
NATIONAL WEATHER SERVICE NEW ORLEANS LA
100 AM CDT SAT APR 18 2015

NOTE: "FAIR" INDICATES FEW OR NO CLOUDS BELOW 12,000 FEET WITH NO
      SIGNIFICANT WEATHER AND/OR OBSTRUCTIONS TO VISIBILITY.
      SKY/WX - SKY CONDITION AND SIGNIFICANT WEATHER.
      TMP - AIR TEMPERATURE.     DP    - DEWPOINT TEMPERATURE.
      RH  - RELATIVE HUMIDITY.   PRES  - PRESSURE.
      HI  - HEAT INDEX.          WCI   - WIND CHILL INDEX.

*  THESE STATIONS ARE NOT NWS OR FAA STATIONS AND ARE NOT UNDER
   NWS QUALITY CONTROL.

LAZ038-040-048-061>063-065>067-069-180700-
SOUTHEAST LOUISIANA

CITY           SKY/WX    TMP DP  RH WIND       PRES   REMARKS
N.O. AUDUBON     N/A     72  71  95 MISG        N/A
6HR MIN TEMP:  71; 6HR MAX TEMP:  76;

N.O. INTL ARPT CLOUDY    74  70  87 SW3       29.92F
6HR MIN TEMP:  74; 6HR MAX TEMP:  79;

N.O. LAKEFRONT   N/A     77  71  82 E5        29.90F
6HR MIN TEMP:  77; 6HR MAX TEMP:  81;

SLIDELL          N/A     71  71 100 CALM      29.90F
6HR MIN TEMP:  71; 6HR MAX TEMP:  79;

BATON ROUGE    LGT RAIN  72  68  87 CALM      29.95R
6HR MIN TEMP:  71; 6HR MAX TEMP:  78; 6HR PCP: TRACE;

BOOTHVILLE       N/A     71  67  87 CALM      29.93F
6HR MIN TEMP:  70; 6HR MAX TEMP:  77;

BELLE CHASSE     N/A     71  69  93 CALM      29.91F
6HR MIN TEMP:  70; 6HR MAX TEMP:  76;

BOGALUSA*        N/A     69  66  89 CALM      29.95F
6HR MIN TEMP:  69; 6HR MAX TEMP:  81;

GALLIANO*        N/A     72  71  95 CALM      29.92F
6HR MIN TEMP:  72; 6HR MAX TEMP:  80;

NEW ROADS*       N/A     72  69  92 CALM      29.95R
6HR MIN TEMP:  71; 6HR MAX TEMP:  78;

GONZALES*      LGT RAIN  71  71 100 CALM      29.93R
6HR MIN TEMP:  71; 6HR MAX TEMP:  78;

HAMMOND*         N/A     72  66  83 CALM      29.93F
HOUMA*         MOCLDY    72  71  98 CALM      29.94R
6HR MIN TEMP:  71; 6HR MAX TEMP:  78;

PORT FOURCHON* CLOUDY    75  70  83 SE6       29.95F

$$

MSZ070-080>082-180700-
SOUTHERN MISSISSIPPI

CITY           SKY/WX    TMP DP  RH WIND       PRES   REMARKS
MCCOMB           N/A     68  67  96 CALM      29.94F
6HR MIN TEMP:  67; 6HR MAX TEMP:  79;

GULFPORT         N/A     71  69  93 CALM      29.93F
6HR MIN TEMP:  71; 6HR MAX TEMP:  77;

BILOXI           N/A     71  71 100 CALM      29.93F
6HR MIN TEMP:  71; 6HR MAX TEMP:  76;

PASCAGOULA     CLOUDY    72  71  97 NE5       29.94S
6HR MIN TEMP:  71; 6HR MAX TEMP:  75;


$$

COASTAL OBSERVATIONS
LAKE AND NEARSHORE STATIONS

STATION/POSITION TIME  TEMP    WIND        PRES    WAVE
                       AIR SEA DIR/SP/G            HT/PER
                 (UTC) (F)     (DEG/KT/KT) (MB)    (FT/S)
PASCAGOULA       0500   74     260/  6/  7 1013.1
WAVELAND YACHT   0500   73 74  340/  5/ 10 1013.6
GRAND ISLE       0500   75 76  130/  1/  2 1013.6
SOUTHWEST PASS   0500   71 63  120/  6/  6 1014.1
NEW CANAL        0500   75      CALM  /  1 1013.8
SHELL BEACH      0500   74 76  220/  3/  4 1013.0

OFFSHORE STATIONS

STATION/POSITION TIME  TEMP    WIND        PRES    WAVE
                       AIR SEA DIR/SP/G            HT/PER
                 (UTC) (F)     (DEG/KT/KT) (MB)    (FT/S)
64 S DAUPHIN ISL 0550   74 73  160/  4/  4 1013.9    3/ 5

$$




USA.gov is the U.S. government's official web portal to all federal, state and local government web resources and services.